Location: Newark
(49.8969°N, 3.3422°E)
Time: 01:26:01
(UTC+00:00)

A-11 Canister half - Pass Details

Date: 30 January 2020
Orbit: 1517 x 1683 km, 47.2° (Epoch: 25 February)

Event Time Altitude Azimuth Distance (km) Brightness Sun altitude
Rises 02:59:37 0° 283° (WNW) 4,692 - -41.9°
Reaches altitude 10° 03:02:44 10° 279° (W) 3,697 - -41.5°
Maximum altitude 03:11:44 58° 204° (SSW) 1,726 - -40.1°
Exits shadow 03:15:16 38° 147° (SSE) 2,155 9.7 -39.6°
Drops below altitude 10° 03:20:44 10° 128° (SE) 3,689 11.3 -38.8°
Sets 03:23:50 0° 125° (SE) 4,682 11.9 -38.3°
